Regional Weather Roundup
Issued by NWS

Home | Current Version | Previous Version | Graphics & Text | Print | Product List | Glossary On
Versions: 1 2 3 4 5 6 7 8 9 10 11 12 13 14 15 16 17 18 19 20 21 22 23 24 25 26 27 28 29 30 31 32 33 34 35 36 37 38 39 40 41 42 43 44 45 46 47 48 49 50
000
ASUS43 KDMX 240307
RWRIA

WEATHER ROUNDUP FOR IOWA
NATIONAL WEATHER SERVICE DES MOINES IA
900 PM CST TUE DEC 23 2014

NOTE: "FAIR" INDICATES FEW OR NO CLOUDS BELOW 12,000 FEET WITH NO
SIGNIFICANT WEATHER AND/OR OBSTRUCTIONS TO VISIBILITY.

* - THESE STATIONS ARE NOT NWS STATIONS...THUS NOT UNDER NWS
QUALITY CONTROL.  THEY ALSO DO NOT REPORT WEATHER SUCH
AS PRECIPITATION OR FOG.

IAZ001>003-012>014-020>022-031>034-043>046-240400-
   NORTHWEST IOWA

CITY           SKY/WX    TMP DP  RH WIND       PRES   REMARKS
CARROLL *      CLOUDY    34  34 100 NW14      29.84R WCI  24
CHEROKEE *     CLOUDY    34  34 100 N14G24    29.88R FOG     WCI  24
DENISON *      CLOUDY    34  34 100 N13G21    29.85R FOG     WCI  25
LE MARS *      CLOUDY    36  34  93 N14G20    29.92R WCI  27
ORANGE CITY *  CLOUDY    36  32  87 N15       29.89S WCI  26
SHELDON *      CLOUDY    34  34 100 N18G29    29.88S WCI  23
SIOUX CITY     CLOUDY    36  32  85 NW21      29.91S WCI  25
SPENCER        LGT RAIN  35  32  88 N20       29.86R FOG     WCI  24
STORM LAKE *   MIX PCPN  34  34 100 N21G28    29.85R WCI  22
$$

IAZ055>058-069>071-079>083-090>094-240400-
   SOUTHWEST IOWA

CITY           SKY/WX    TMP DP  RH WIND       PRES   REMARKS
ATLANTIC *     LGT RAIN  34  34 100 N12       29.85R WCI  25
AUDUBON *      LGT SNOW  34  28  80 N7        29.85R WCI  28
CLARINDA *     LGT SNOW  34  34 100 NW14      29.87R WCI  24
COUNCIL BLFS * CLOUDY    36  36 100 N14G21    29.87R WCI  27
CRESTON *      LGT SNOW  32  32 100 NW15      29.81R WCI  22
HARLAN  *      MIX PCPN  34  34 100 N16G22    29.89R WCI  23
LAMONI         CLOUDY    35  32  88 N13       29.80R WCI  26
RED OAK *      LGT SNOW  34  34 100 NW10G17   29.87R WCI  26
SHENANDOAH *   LGT SNOW  36  34  93 N13       29.89R WCI  27
$$

IAZ047>049-059>061-072>074-084-240400-
   CENTRAL IOWA

CITY           SKY/WX    TMP DP  RH WIND       PRES   REMARKS
AMES           LGT SNOW  33  31  92 NW10      29.80S FOG     WCI  25
ANKENY *       LGT SNOW  34  34 100 NW9       29.80R WCI  26
CHARITON *     CLOUDY    36  34  93 N13       29.78R WCI  27
DES MOINES     LGT SNOW  34  32  92 NW8       29.81R VSB 3/4 WCI  27
GRINNELL*      CLOUDY    33  33  96 NW9       29.77R FOG     WCI  26
KNOXVILLE *    CLOUDY    34  32  93 NW9G15    29.77R WCI  26
MARSHALLTOWN   LGT SNOW  32  32 100 NW9       29.76S VSB 3/4 WCI  24
PELLA *        CLOUDY    35  33  94 NW9       29.80R FOG     WCI  27
PERRY *        LGT SNOW  33  33 100 NW10      29.82S WCI  25
$$

IAZ004>006-015-016-023>025-035-036-240400-
   NORTH CENTRAL IOWA

CITY           SKY/WX    TMP DP  RH WIND       PRES   REMARKS
ALGONA *       CLOUDY    34  34 100 N16G22    29.82R WCI  23
CLARION *      MIX PCPN  34  34 100 N12       29.79S WCI  25
ESTHERVILLE    CLOUDY    34  32  92 N17       29.84R WCI  23
FORT DODGE *   CLOUDY    34  30  86 N8G16     29.82R WCI  27
MASON CITY     CLOUDY    34  32  92 N10       29.80R WCI  26
FOREST CITY *  LGT RAIN  34  32  93 N14       29.79R WCI  24
IOWA FALLS *   LGT SNOW  33  32  96 NW8       29.79R WCI  26
$$

IAZ007>011-017>019-026>030-037>042-050>054-066-240400-
   NORTHEAST IOWA

CITY           SKY/WX    TMP DP  RH WIND       PRES   REMARKS
CEDAR RAPIDS   CLOUDY    35  34  96 NW8       29.74S WCI  29
CHARLES CITY * CLOUDY    34  34 100 N10       29.77S WCI  26
CLINTON *      CLOUDY    37  34  87 SW5       29.78R WCI  34
DECORAH *      CLOUDY    34  34 100 N8        29.73S FOG     WCI  27
DUBUQUE        CLOUDY    35  35 100 NW3       29.72F FOG
MONTICELLO *   CLOUDY    36  36 100 NW6       29.73F WCI  31
OELWEIN *      CLOUDY    34  34 100 N8        29.75S FOG     WCI  27
WATERLOO       CLOUDY    34  33  96 NW7       29.76R WCI  28
$$

IAZ064-065-067-068-078-240400-
   EAST CENTRAL IOWA

CITY           SKY/WX    TMP DP  RH WIND       PRES   REMARKS
DAVENPORT      CLOUDY    38  33  82 W5        29.75S WCI  34
IOWA CITY      CLOUDY    37  35  92 NW5       29.76S WCI  33
MT. PLEASANT * DRIZZLE   37  35  92 W5        29.77R WCI  33
MUSCATINE *    MIX PCPN  39  37  93 SW7       29.77R WCI  34
QUAD CITIES    CLOUDY    38  33  82 SW3       29.74F
$$

IAZ062-063-075>077-085>089-095>099-240400-
   SOUTHEAST IOWA

CITY           SKY/WX    TMP DP  RH WIND       PRES   REMARKS
BURLINGTON     CLOUDY    39  34  82 W3        29.76R
FAIRFIELD *    CLOUDY    37  36  93 W5        29.76S WCI  34
FORT MADISON * CLOUDY    39  36  87 CALM      29.78R
KEOKUK *       CLOUDY    39  34  81 W7        29.77R WCI  34
OSKALOOSA *    CLOUDY    35  33  92 NW9       29.77S WCI  28
CENTERVILLE *  CLOUDY    36  36 100 NW10      29.79R WCI  28
OTTUMWA        CLOUDY    36  35  96 NW10      29.76S WCI  28
WASHINGTON *   CLOUDY    37  37 100 W6        29.75S WCI  33
$$

ABBREVIATIONS USED IN REMARKS
   TC - TEMPERATURES IN CELSIUS
  WCI - WIND CHILL INDEX
   HX - HEAT INDEX
  VSB - VISIBILITY
$$




USA.gov is the U.S. government's official web portal to all federal, state and local government web resources and services.